Time,TemperatureF,DewpointF,PressureIn,WindDirection,WindDirectionDegrees,WindSpeedMPH,WindSpeedGustMPH,Humidity,HourlyPrecipIn,Conditions,Clouds,dailyrainin,SoftwareType,DateUTC
2013-04-26 00:01:00,38.0,30.0,-100.00,North,-999,-999.0,-999.0,73,-99.99,,,-99.99,,2013-04-26 07:01:00,
2013-04-26 00:11:00,38.0,37.0,-100.00,North,-999,-999.0,-999.0,96,-99.99,,,-99.99,,2013-04-26 07:11:00,
2013-04-26 00:22:00,38.0,32.0,-100.00,North,-999,-999.0,-999.0,79,-99.99,,,-99.99,,2013-04-26 07:22:00,
2013-04-26 00:31:00,38.0,32.0,-100.00,North,-999,-999.0,-999.0,79,-99.99,,,-99.99,,2013-04-26 07:31:00,
2013-04-26 00:42:00,37.0,31.0,-100.00,North,-999,-999.0,-999.0,78,-99.99,,,-99.99,,2013-04-26 07:42:00,
2013-04-26 00:52:00,37.0,30.0,-100.00,North,-999,-999.0,-999.0,76,-99.99,,,-99.99,,2013-04-26 07:52:00,
2013-04-26 01:02:00,37.0,30.0,-100.00,North,-999,-999.0,-999.0,76,-99.99,,,-99.99,,2013-04-26 08:02:00,
2013-04-26 01:11:00,36.0,31.0,-100.00,North,-999,-999.0,-999.0,80,-99.99,,,-99.99,,2013-04-26 08:11:00,
2013-04-26 01:21:00,36.0,30.0,-100.00,North,-999,-999.0,-999.0,80,-99.99,,,-99.99,,2013-04-26 08:21:00,
2013-04-26 01:31:00,36.0,30.0,-100.00,North,-999,-999.0,-999.0,80,-99.99,,,-99.99,,2013-04-26 08:31:00,
2013-04-26 01:42:00,36.0,31.0,-100.00,North,-999,-999.0,-999.0,82,-99.99,,,-99.99,,2013-04-26 08:42:00,
2013-04-26 01:51:00,36.0,33.0,-100.00,North,-999,-999.0,-999.0,87,-99.99,,,-99.99,,2013-04-26 08:51:00,
2013-04-26 02:01:00,36.0,32.0,-100.00,North,-999,-999.0,-999.0,85,-99.99,,,-99.99,,2013-04-26 09:01:00,
2013-04-26 02:11:00,36.0,32.0,-100.00,North,-999,-999.0,-999.0,85,-99.99,,,-99.99,,2013-04-26 09:11:00,
2013-04-26 02:21:00,35.0,31.0,-100.00,North,-999,-999.0,-999.0,85,-99.99,,,-99.99,,2013-04-26 09:21:00,
2013-04-26 02:32:00,35.0,31.0,-100.00,North,-999,-999.0,-999.0,86,-99.99,,,-99.99,,2013-04-26 09:32:00,
2013-04-26 02:42:00,35.0,31.0,-100.00,North,-999,-999.0,-999.0,86,-99.99,,,-99.99,,2013-04-26 09:42:00,
2013-04-26 02:53:00,34.0,31.0,-100.00,North,-999,-999.0,-999.0,89,-99.99,,,-99.99,,2013-04-26 09:53:00,
2013-04-26 03:03:00,33.0,-99.9,-100.00,North,-999,-999.0,-999.0,-999,-99.99,,,-99.99,,2013-04-26 10:03:00,
2013-04-26 03:12:00,33.0,-99.9,-100.00,North,-999,-999.0,-999.0,-999,-99.99,,,-99.99,,2013-04-26 10:12:00,
2013-04-26 03:23:00,33.0,-99.9,-100.00,North,-999,-999.0,-999.0,-999,-99.99,,,-99.99,,2013-04-26 10:23:00,
2013-04-26 03:33:00,34.0,32.0,-100.00,North,-999,-999.0,-999.0,91,-99.99,,,-99.99,,2013-04-26 10:33:00,
2013-04-26 03:42:00,34.0,32.0,-100.00,North,-999,-999.0,-999.0,91,-99.99,,,-99.99,,2013-04-26 10:42:00,
2013-04-26 03:52:00,34.0,32.0,-100.00,North,-999,-999.0,-999.0,93,-99.99,,,-99.99,,2013-04-26 10:52:00,
2013-04-26 04:02:00,34.0,32.0,-100.00,North,-999,-999.0,-999.0,93,-99.99,,,-99.99,,2013-04-26 11:02:00,
2013-04-26 04:11:00,33.0,31.0,-100.00,North,-999,-999.0,-999.0,93,-99.99,,,-99.99,,2013-04-26 11:11:00,
2013-04-26 04:21:00,33.0,31.0,-100.00,North,-999,-999.0,-999.0,93,-99.99,,,-99.99,,2013-04-26 11:21:00,
2013-04-26 04:32:00,33.0,31.0,-100.00,North,-999,-999.0,-999.0,93,-99.99,,,-99.99,,2013-04-26 11:32:00,
2013-04-26 04:41:00,33.0,33.0,-100.00,North,-999,-999.0,-999.0,99,-99.99,,,-99.99,,2013-04-26 11:41:00,
2013-04-26 04:52:00,-999.0,-99.9,-100.00,West,280,0.0,-999.0,-999,-99.99,,,-99.99,,2013-04-26 11:52:00,
2013-04-26 05:52:00,32.0,32.0,-100.00,North,-999,-999.0,-999.0,99,-99.99,,,-99.99,,2013-04-26 12:52:00,
2013-04-26 06:01:00,32.0,32.0,-100.00,North,-999,-999.0,-999.0,99,-99.99,,,-99.99,,2013-04-26 13:01:00,
2013-04-26 06:11:00,33.0,33.0,-100.00,North,-999,-999.0,-999.0,99,-99.99,,,-99.99,,2013-04-26 13:11:00,
2013-04-26 06:21:00,32.0,32.0,-100.00,North,-999,-999.0,-999.0,99,-99.99,,,-99.99,,2013-04-26 13:21:00,
2013-04-26 06:31:00,32.0,32.0,-100.00,North,-999,-999.0,-999.0,99,-99.99,,,-99.99,,2013-04-26 13:31:00,
2013-04-26 06:42:00,31.0,-99.9,-100.00,North,-999,-999.0,-999.0,-999,-99.99,,,-99.99,,2013-04-26 13:42:00,
2013-04-26 06:52:00,31.0,-99.9,-100.00,North,-999,-999.0,-999.0,-999,-99.99,,,-99.99,,2013-04-26 13:52:00,
2013-04-26 07:02:00,31.0,-99.9,-100.00,North,-999,-999.0,-999.0,-999,-99.99,,,-99.99,,2013-04-26 14:02:00,
2013-04-26 07:11:00,33.0,33.0,-100.00,North,-999,-999.0,-999.0,99,-99.99,,,-99.99,,2013-04-26 14:11:00,
2013-04-26 07:21:00,32.0,32.0,-100.00,North,-999,-999.0,-999.0,99,-99.99,,,-99.99,,2013-04-26 14:21:00,
2013-04-26 07:32:00,32.0,32.0,-100.00,North,-999,-999.0,-999.0,99,-99.99,,,-99.99,,2013-04-26 14:32:00,
2013-04-26 07:41:00,32.0,32.0,-100.00,North,-999,-999.0,-999.0,99,-99.99,,,-99.99,,2013-04-26 14:41:00,
2013-04-26 07:51:00,34.0,34.0,-100.00,North,-999,-999.0,-999.0,99,-99.99,,,-99.99,,2013-04-26 14:51:00,
2013-04-26 08:01:00,34.0,34.0,-100.00,North,-999,-999.0,-999.0,99,-99.99,,,-99.99,,2013-04-26 15:01:00,
2013-04-26 08:11:00,34.0,34.0,-100.00,North,-999,-999.0,-999.0,99,-99.99,,,-99.99,,2013-04-26 15:11:00,
2013-04-26 08:21:00,36.0,36.0,-100.00,North,-999,-999.0,-999.0,99,-99.99,,,-99.99,,2013-04-26 15:21:00,
2013-04-26 08:33:00,36.0,36.0,-100.00,North,-999,-999.0,-999.0,99,-99.99,,,-99.99,,2013-04-26 15:33:00,
2013-04-26 08:42:00,39.0,38.0,-100.00,North,-999,-999.0,-999.0,96,-99.99,,,-99.99,,2013-04-26 15:42:00,
2013-04-26 08:53:00,41.0,40.0,-100.00,North,-999,-999.0,-999.0,94,-99.99,,,-99.99,,2013-04-26 15:53:00,
2013-04-26 09:03:00,41.0,40.0,-100.00,North,-999,-999.0,-999.0,94,-99.99,,,-99.99,,2013-04-26 16:03:00,
2013-04-26 09:13:00,42.0,-99.9,-100.00,North,-999,-999.0,-999.0,-999,-99.99,,,-99.99,,2013-04-26 16:13:00,
2013-04-26 09:23:00,42.0,39.0,-100.00,North,-999,-999.0,-999.0,90,-99.99,,,-99.99,,2013-04-26 16:23:00,
2013-04-26 09:33:00,-999.0,-99.9,-100.00,West,280,0.0,-999.0,-999,-99.99,,,-99.99,,2013-04-26 16:33:00,
2013-04-26 09:42:00,-999.0,-99.9,-100.00,West,280,2.0,-999.0,-999,-99.99,,,-99.99,,2013-04-26 16:42:00,
2013-04-26 09:52:00,45.0,42.0,-100.00,North,-999,-999.0,-999.0,88,-99.99,,,-99.99,,2013-04-26 16:52:00,
2013-04-26 10:02:00,47.0,43.0,-100.00,North,-999,-999.0,-999.0,87,-99.99,,,-99.99,,2013-04-26 17:02:00,
2013-04-26 10:12:00,-999.0,-99.9,-100.00,West,280,2.0,-999.0,-999,-99.99,,,-99.99,,2013-04-26 17:12:00,
2013-04-26 10:21:00,48.0,43.0,-100.00,North,-999,-999.0,-999.0,82,-99.99,,,-99.99,,2013-04-26 17:21:00,
2013-04-26 10:31:00,51.0,49.0,-100.00,West,280,2.0,-999.0,93,-99.99,,,-99.99,,2013-04-26 17:31:00,
2013-04-26 10:52:00,-999.0,-99.9,-100.00,West,280,2.0,-999.0,-999,-99.99,,,-99.99,,2013-04-26 17:52:00,
2013-04-26 11:02:00,51.0,47.0,-100.00,North,-999,-999.0,-999.0,85,-99.99,,,-99.99,,2013-04-26 18:02:00,
2013-04-26 11:33:00,52.0,49.0,-100.00,North,-999,-999.0,-999.0,88,-99.99,,,-99.99,,2013-04-26 18:33:00,
2013-04-26 11:42:00,-999.0,-99.9,-100.00,West,280,2.0,-999.0,-999,-99.99,,,-99.99,,2013-04-26 18:42:00,
2013-04-26 12:01:00,53.0,45.0,-100.00,North,-999,-999.0,-999.0,74,-99.99,,,-99.99,,2013-04-26 19:01:00,
2013-04-26 12:12:00,-999.0,-99.9,-100.00,WNW,290,3.0,-999.0,-999,-99.99,,,-99.99,,2013-04-26 19:12:00,
2013-04-26 12:22:00,-999.0,-99.9,-100.00,West,280,3.0,-999.0,-999,-99.99,,,-99.99,,2013-04-26 19:22:00,
2013-04-26 12:31:00,54.0,49.0,-100.00,North,-999,-999.0,-999.0,83,-99.99,,,-99.99,,2013-04-26 19:31:00,
2013-04-26 12:41:00,56.0,47.0,-100.00,North,-999,-999.0,-999.0,71,-99.99,,,-99.99,,2013-04-26 19:41:00,
2013-04-26 12:52:00,-999.0,-99.9,-100.00,West,280,3.0,-999.0,-999,-99.99,,,-99.99,,2013-04-26 19:52:00,
2013-04-26 13:02:00,57.0,49.0,-100.00,North,-999,-999.0,-999.0,73,-99.99,,,-99.99,,2013-04-26 20:02:00,
2013-04-26 13:11:00,55.0,47.0,-100.00,North,-999,-999.0,-999.0,73,-99.99,,,-99.99,,2013-04-26 20:11:00,
2013-04-26 13:22:00,-999.0,-99.9,-100.00,West,280,3.0,-999.0,-999,-99.99,,,-99.99,,2013-04-26 20:22:00,
2013-04-26 13:32:00,-999.0,-99.9,-100.00,West,280,3.0,-999.0,-999,-99.99,,,-99.99,,2013-04-26 20:32:00,
2013-04-26 13:41:00,56.0,47.0,-100.00,North,-999,-999.0,-999.0,70,-99.99,,,-99.99,,2013-04-26 20:41:00,
2013-04-26 13:52:00,-999.0,-99.9,-100.00,West,260,3.0,-999.0,-999,-99.99,,,-99.99,,2013-04-26 20:52:00,
2013-04-26 14:01:00,56.0,41.0,-100.00,North,-999,-999.0,-999.0,57,-99.99,,,-99.99,,2013-04-26 21:01:00,
2013-04-26 14:11:00,58.0,47.0,-100.00,North,-999,-999.0,-999.0,66,-99.99,,,-99.99,,2013-04-26 21:11:00,
2013-04-26 14:22:00,-999.0,-99.9,-100.00,WSW,250,2.0,-999.0,-999,-99.99,,,-99.99,,2013-04-26 21:22:00,
2013-04-26 14:32:00,61.0,44.0,-100.00,North,-999,-999.0,-999.0,53,-99.99,,,-99.99,,2013-04-26 21:32:00,
2013-04-26 14:42:00,64.0,40.0,-100.00,North,-999,-999.0,-999.0,41,-99.99,,,-99.99,,2013-04-26 21:42:00,
2013-04-26 14:52:00,64.0,40.0,-100.00,North,-999,-999.0,-999.0,41,-99.99,,,-99.99,,2013-04-26 21:52:00,
2013-04-26 15:02:00,66.0,35.0,-100.00,North,-999,-999.0,-999.0,32,-99.99,,,-99.99,,2013-04-26 22:02:00,
2013-04-26 15:12:00,64.0,35.0,-100.00,West,280,3.0,-999.0,34,-99.99,,,-99.99,,2013-04-26 22:12:00,
2013-04-26 15:22:00,64.0,35.0,-100.00,West,280,3.0,-999.0,34,-99.99,,,-99.99,,2013-04-26 22:22:00,
2013-04-26 15:52:00,66.0,35.0,-100.00,WNW,290,3.0,-999.0,31,-99.99,,,-99.99,,2013-04-26 22:52:00,
2013-04-26 16:01:00,66.0,35.0,-100.00,WNW,290,3.0,-999.0,31,-99.99,,,-99.99,,2013-04-26 23:01:00,
2013-04-26 16:11:00,68.0,32.0,-100.00,WNW,290,3.0,-999.0,26,-99.99,,,-99.99,,2013-04-26 23:11:00,
2013-04-26 16:21:00,68.0,42.0,-100.00,WNW,290,2.0,-999.0,38,-99.99,,,-99.99,,2013-04-26 23:21:00,
2013-04-26 16:32:00,68.0,42.0,-100.00,WNW,290,2.0,-999.0,38,-99.99,,,-99.99,,2013-04-26 23:32:00,
2013-04-26 16:42:00,65.0,47.0,-100.00,WNW,290,3.0,-999.0,52,-99.99,,,-99.99,,2013-04-26 23:42:00,
2013-04-26 16:52:00,66.0,40.0,-100.00,North,-999,-999.0,-999.0,39,-99.99,,,-99.99,,2013-04-26 23:52:00,
2013-04-26 17:01:00,-999.0,-99.9,-100.00,WNW,290,2.0,-999.0,-999,-99.99,,,-99.99,,2013-04-27 00:01:00,
2013-04-26 17:12:00,-999.0,-99.9,-100.00,WNW,290,2.0,-999.0,-999,-99.99,,,-99.99,,2013-04-27 00:12:00,
2013-04-26 17:21:00,67.0,39.0,-100.00,North,-999,-999.0,-999.0,35,-99.99,,,-99.99,,2013-04-27 00:21:00,
2013-04-26 17:32:00,67.0,39.0,-100.00,North,-999,-999.0,-999.0,35,-99.99,,,-99.99,,2013-04-27 00:32:00,
2013-04-26 17:41:00,67.0,43.0,-100.00,North,-999,-999.0,-999.0,42,-99.99,,,-99.99,,2013-04-27 00:41:00,
2013-04-26 17:51:00,66.0,43.0,-100.00,North,-999,-999.0,-999.0,43,-99.99,,,-99.99,,2013-04-27 00:51:00,
2013-04-26 18:01:00,-999.0,-99.9,-100.00,WNW,290,1.0,-999.0,-999,-99.99,,,-99.99,,2013-04-27 01:01:00,
2013-04-26 18:11:00,64.0,64.0,-100.00,North,-999,-999.0,-999.0,780,-99.99,,,-99.99,,2013-04-27 01:11:00,
2013-04-26 18:21:00,61.0,35.0,-100.00,North,-999,-999.0,-999.0,37,-99.99,,,-99.99,,2013-04-27 01:21:00,
2013-04-26 18:32:00,58.0,46.0,-100.00,North,-999,-999.0,-999.0,64,-99.99,,,-99.99,,2013-04-27 01:32:00,
2013-04-26 18:52:00,58.0,41.0,-100.00,North,-999,-999.0,-999.0,53,-99.99,,,-99.99,,2013-04-27 01:52:00,
2013-04-26 19:01:00,60.0,39.0,-100.00,North,-999,-999.0,-999.0,46,-99.99,,,-99.99,,2013-04-27 02:01:00,
2013-04-26 19:22:00,59.0,45.0,-100.00,North,-999,-999.0,-999.0,60,-99.99,,,-99.99,,2013-04-27 02:22:00,
2013-04-26 19:32:00,58.0,48.0,-100.00,North,-999,-999.0,-999.0,68,-99.99,,,-99.99,,2013-04-27 02:32:00,
2013-04-26 19:51:00,57.0,47.0,-100.00,North,-999,-999.0,-999.0,68,-99.99,,,-99.99,,2013-04-27 02:51:00,
2013-04-26 20:02:00,55.0,44.0,-100.00,North,-999,-999.0,-999.0,65,-99.99,,,-99.99,,2013-04-27 03:02:00,
2013-04-26 20:22:00,55.0,44.0,-100.00,North,-999,-999.0,-999.0,67,-99.99,,,-99.99,,2013-04-27 03:22:00,
2013-04-26 20:32:00,55.0,43.0,-100.00,North,-999,-999.0,-999.0,64,-99.99,,,-99.99,,2013-04-27 03:32:00,
2013-04-26 20:52:00,54.0,42.0,-100.00,North,-999,-999.0,-999.0,63,-99.99,,,-99.99,,2013-04-27 03:52:00,
2013-04-26 21:02:00,53.0,42.0,-100.00,North,-999,-999.0,-999.0,66,-99.99,,,-99.99,,2013-04-27 04:02:00,
2013-04-26 21:12:00,52.0,42.0,-100.00,North,-999,-999.0,-999.0,69,-99.99,,,-99.99,,2013-04-27 04:12:00,
2013-04-26 21:22:00,52.0,42.0,-100.00,North,-999,-999.0,-999.0,69,-99.99,,,-99.99,,2013-04-27 04:22:00,
2013-04-26 21:33:00,50.0,42.0,-100.00,North,-999,-999.0,-999.0,73,-99.99,,,-99.99,,2013-04-27 04:33:00,
2013-04-26 21:42:00,50.0,42.0,-100.00,North,-999,-999.0,-999.0,73,-99.99,,,-99.99,,2013-04-27 04:42:00,
2013-04-26 21:53:00,-999.0,-99.9,-100.00,NW,320,0.0,-999.0,-999,-99.99,,,-99.99,,2013-04-27 04:53:00,
2013-04-26 22:02:00,50.0,42.0,-100.00,North,-999,-999.0,-999.0,74,-99.99,,,-99.99,,2013-04-27 05:02:00,
2013-04-26 22:12:00,49.0,41.0,-100.00,North,-999,-999.0,-999.0,75,-99.99,,,-99.99,,2013-04-27 05:12:00,
2013-04-26 22:22:00,49.0,41.0,-100.00,North,-999,-999.0,-999.0,75,-99.99,,,-99.99,,2013-04-27 05:22:00,
2013-04-26 22:31:00,47.0,43.0,-100.00,North,-999,-999.0,-999.0,86,-99.99,,,-99.99,,2013-04-27 05:31:00,
2013-04-26 22:42:00,47.0,42.0,-100.00,North,-999,-999.0,-999.0,82,-99.99,,,-99.99,,2013-04-27 05:42:00,
2013-04-26 22:52:00,47.0,42.0,-100.00,North,-999,-999.0,-999.0,82,-99.99,,,-99.99,,2013-04-27 05:52:00,
2013-04-26 23:01:00,46.0,41.0,-100.00,North,-999,-999.0,-999.0,83,-99.99,,,-99.99,,2013-04-27 06:01:00,
2013-04-26 23:12:00,45.0,40.0,-100.00,North,-999,-999.0,-999.0,83,-99.99,,,-99.99,,2013-04-27 06:12:00,
2013-04-26 23:22:00,45.0,40.0,-100.00,North,-999,-999.0,-999.0,83,-99.99,,,-99.99,,2013-04-27 06:22:00,
2013-04-26 23:32:00,45.0,40.0,-100.00,North,-999,-999.0,-999.0,83,-99.99,,,-99.99,,2013-04-27 06:32:00,
2013-04-26 23:41:00,45.0,42.0,-100.00,North,-999,-999.0,-999.0,87,-99.99,,,-99.99,,2013-04-27 06:41:00,
2013-04-26 23:52:00,44.0,42.0,-100.00,North,-999,-999.0,-999.0,92,-99.99,,,-99.99,,2013-04-27 06:52:00,